SCP
5 6 11 18 21 20 20 26 31 30 25 22 23 26 29 31 32 33 33 31 28 23 18 16 17 17 17 17 16 14 12 9 7 6 4 2 1 1 2 5 8 12 15
9 10 12 16 18 17 18 23 29 30 28 28 29 31 34 34 33 32 31 29 26 22 19 17 16 15 15 15 14 13 12 10 7 6 4 2 1 0 1 5 10 13 13
17 16 15 15 16 16 17 20 24 28 32 35 38 39 38 35 31 26 21 18 17 16 14 13 13 12 12 12 12 12 12 11 9 7 5 3 1 0 1 3 7 10 11
19 17 16 16 17 20 21 21 22 28 34 38 40 40 37 30 23 16 9 6 6 6 6 6 7 8 9 11 12 13 13 13 12 9 5 3 2 1 1 2 3 5 6
18 15 15 16 18 20 21 20 22 28 32 33 32 31 28 22 15 8 4 2 1 1 1 1 2 3 5 7 9 10 11 11 11 9 5 2 2 2 3 2 2 2 2
17 16 14 13 12 11 11 12 16 20 23 23 20 18 17 13 8 4 1 1 0 0 0 0 0 1 1 2 3 4 4 5 6 5 3 2 3 4 4 3 2 2 2
14 12 9 6 5 4 3 4 6 8 12 13 11 9 8 6 3 2 1 0 0 0 0 0 0 0 0 0 0 0 1 1 2 2 2 2 2 4 5 4 4 4 4
9 6 3 2 1 1 1 1 1 2 4 5 4 3 2 2 1 1 0 0 0 0 0 0 0 0 0 0 0 0 0 0 0 0 1 1 1 2 4 5 5 4 4
6 3 1 1 1 1 1 1 1 1 1 1 1 1 1 0 0 0 0 0 0 0 0 0 0 0 0 0 0 0 0 0 0 0 0 0 1 1 2 3 3 2 2
3 2 1 0 0 1 1 1 1 1 1 1 1 1 0 0 0 0 0 0 0 0 0 0 0 0 0 0 0 0 0 0 0 0 0 0 1 1 1 1 2 2 2
1 1 1 0 0 0 1 1 1 1 1 1 1 1 0 0 0 0 0 0 0 0 0 0 0 0 0 0 0 0 0 0 0 0 0 0 0 0 0 0 1 2 2
0 0 1 1 0 1 1 2 3 3 2 2 1 1 0 0 0 0 0 0 0 0 0 0 0 0 0 0 0 0 0 0 0 0 0 0 0 0 0 0 0 1 2
0 0 0 0 0 1 1 3 3 4 3 2 1 0 0 0 0 0 0 0 0 0 0 0 0 0 0 0 0 0 0 0 0 0 0 0 0 0 0 0 0 0 1
0 0 0 0 0 0 1 2 3 3 2 1 1 0 0 0 0 0 0 0 0 0 0 0 0 0 0 0 0 0 0 0 0 0 0 0 0 0 0 0 0 0 0
0 0 0 0 0 0 0 1 1 1 1 1 1 0 0 0 0 0 0 0 0 0 0 0 0 0 0 0 0 0 0 0 0 0 0 0 0 0 0 0 0 0 0
0 0 0 0 0 0 0 0 0 1 1 1 1 0 0 0 0 0 0 0 0 0 0 0 0 0 0 0 0 0 0 0 0 0 0 0 0 0 0 0 0 0 0
0 0 0 0 0 0 0 0 0 0 0 0 1 1 0 0 0 0 0 0 0 0 0 0 0 0 0 0 0 0 0 0 0 0 0 0 0 0 0 0 0 0 0
0 0 0 0 0 0 0 0 0 0 0 0 0 0 0 0 0 0 0 0 0 0 0 0 0 0 0 0 0 0 0 0 0 0 0 0 0 0 0 0 0 0 0
0 0 0 0 0 0 0 0 0 0 0 0 0 0 0 0 0 0 0 0 0 0 0 0 0 0 0 0 0 0 0 0 0 0 0 0 0 0 0 0 0 0 0
0 0 0 0 0 0 0 0 0 0 0 0 0 0 0 0 0 0 0 0 0 0 0 0 0 0 0 0 0 0 0 0 0 0 0 0 0 0 0 0 0 0 0
0 0 0 0 0 0 0 0 0 0 0 0 0 0 0 0 0 0 0 0 0 0 0 0 0 0 0 0 0 0 0 0 0 0 0 0 0 0 0 0 0 0 0
0 0 0 0 0 0 0 0 0 0 0 0 0 0 0 0 0 0 0 0 0 0 0 0 0 0 0 0 0 0 0 0 0 0 0 0 0 0 0 0 0 0 0
0 0 0 0 0 0 0 0 0 0 0 0 0 0 0 0 0 0 0 0 0 0 0 0 0 0 0 0 0 0 0 0 0 0 0 0 0 0 0 0 0 0 0
0 0 0 0 0 0 0 0 0 0 0 0 0 0 0 0 0 0 0 0 0 0 0 0 0 0 0 0 0 0 0 0 0 0 0 0 0 0 0 0 0 0 0
0 0 0 0 0 0 0 0 0 0 0 0 0 0 0 0 0 0 0 0 0 0 0 0 0 0 0 0 0 0 0 0 0 0 0 0 0 0 0 0 0 0 0
0 0 0 0 0 0 0 0 0 0 0 0 0 0 0 0 0 0 0 0 0 0 0 0 0 0 0 0 0 0 0 0 0 0 0 0 0 0 0 0 0 0 0
Wind_Speed
6 4 5 7 7 8 9 10 9 9 7 5 5 5 4 3 3 2 2 2 2 2 2 2 3 2 3 5 5 4 6 5 4 4 5 6 7 8 7 7 7 8 8
2 2 2 2 3 3 3 3 5 6 6 5 4 3 3 2 2 1 2 2 2 2 1 1 1 2 3 4 5 5 4 4 4 4 4 4 4 4 5 4 5 6 5
1 2 4 5 4 3 3 3 3 3 3 3 2 2 2 2 2 1 1 2 3 3 3 2 2 2 2 4 5 5 7 7 4 5 5 4 5 3 3 3 3 3 3
3 2 1 3 3 3 2 2 2 3 3 3 3 4 3 3 3 2 2 1 2 2 2 3 3 3 3 4 5 5 6 8 7 5 6 7 5 4 4 3 2 3 3
3 3 2 1 2 2 1 0 1 2 3 3 2 3 3 3 3 3 3 1 1 1 2 3 3 3 3 4 6 6 6 6 7 6 5 6 6 7 6 5 3 2 2
4 3 3 3 3 3 3 1 1 1 1 3 3 3 4 5 4 4 3 2 1 1 2 3 3 3 3 4 5 5 6 5 7 6 5 5 4 5 6 7 5 4 3
2 2 3 3 3 3 2 1 0 1 1 2 3 3 4 4 4 4 3 2 1 0 2 2 3 3 3 4 4 5 5 5 5 5 4 4 5 3 3 4 4 4 3
3 3 2 2 2 2 1 1 2 2 3 3 3 3 3 3 2 3 3 2 1 0 1 2 2 3 4 4 4 4 5 5 5 5 5 3 3 2 2 2 2 3 2
5 5 4 4 3 2 2 1 1 2 2 3 4 4 4 4 3 3 3 2 1 0 1 2 2 3 3 4 4 3 4 4 4 4 5 3 3 3 2 2 1 1 2
6 6 5 4 4 3 2 1 1 2 3 3 3 4 4 4 4 3 3 2 1 1 2 2 3 3 4 4 4 4 4 4 4 3 4 4 3 2 2 2 2 1 2
8 7 5 4 4 3 2 1 2 2 3 4 3 4 5 4 4 3 2 1 1 2 3 3 3 4 5 5 4 5 5 4 4 4 4 5 4 3 3 3 3 2 2
7 6 5 4 3 3 2 2 2 3 3 4 4 4 4 4 4 3 2 3 3 3 4 4 5 5 5 5 5 5 6 5 5 5 5 5 4 5 3 3 3 3 3
7 5 4 3 3 2 2 2 2 2 3 4 5 5 4 4 3 3 3 4 4 5 5 5 5 5 6 6 6 6 6 7 6 6 6 6 6 6 5 5 4 3 3
5 3 2 2 2 1 1 2 1 1 2 3 4 4 3 3 3 3 4 4 4 5 5 5 5 5 5 6 6 6 7 7 7 7 6 6 6 6 6 5 6 5 5
4 3 2 2 1 1 1 1 1 1 2 3 3 3 3 4 4 4 4 5 5 5 4 5 5 6 5 5 6 6 7 7 7 7 7 8 10 10 7 5 6 6 5
5 3 3 3 3 2 2 1 1 1 2 3 3 3 4 4 4 5 5 5 5 4 5 5 5 6 5 8 10 7 7 7 8 7 7 7 10 11 11 11 10 10 8
5 4 4 4 4 4 3 3 2 2 3 3 3 3 4 4 4 5 5 5 4 4 4 4 5 5 6 9 11 11 8 8 8 8 7 8 9 10 8 8 10 11 11
6 5 5 4 4 3 3 2 2 3 3 4 3 4 4 5 4 5 5 4 3 4 3 4 4 4 5 8 9 9 8 8 7 7 7 7 8 10 8 7 9 9 9
6 6 5 4 4 3 3 3 3 3 4 4 4 4 5 5 5 5 4 3 4 4 3 3 4 5 4 5 7 6 5 6 7 6 7 8 8 11 11 9 8 9 8
5 5 4 4 4 3 3 4 3 4 4 4 4 4 4 5 5 5 4 3 4 5 5 5 5 5 4 4 5 6 4 5 4 5 6 9 10 10 10 7 6 7 6
6 5 5 5 4 4 4 4 4 5 4 4 5 4 4 4 4 4 3 5 6 6 5 6 5 5 5 7 7 6 4 4 4 4 5 6 10 10 9 7 5 4 4
6 6 6 5 4 5 5 5 5 4 4 5 5 4 4 4 4 5 4 5 6 6 5 5 5 4 4 6 8 10 8 4 4 3 3 4 8 9 10 7 8 8 6
8 7 7 6 4 5 6 6 5 5 6 6 5 5 4 4 4 5 6 5 5 5 4 4 4 3 2 4 8 9 9 7 4 2 4 5 7 7 7 10 10 8 6
8 6 7 6 6 6 6 6 6 7 7 7 5 5 5 4 4 3 4 5 5 5 4 4 4 3 2 2 2 3 3 5 4 3 4 6 7 7 6 6 6 5 5
7 7 8 8 8 7 7 6 7 8 7 6 5 5 4 5 4 3 2 3 3 4 5 4 4 4 3 2 3 3 2 2 2 2 3 4 4 4 4 4 4 4 4
8 8 8 8 8 7 7 7 8 9 8 6 6 5 4 4 4 4 3 4 2 3 5 6 6 3 4 6 5 4 4 3 3 3 2 2 2 2 2 3 3 3 4
Wind_Direction
211 198 199 197 197 200 201 203 201 202 188 181 187 187 189 187 190 194 198 205 211 200 200 229 248 240 241 250 251 253 258 254 239 256 272 267 259 257 258 257 258 258 250
1 331 311 268 237 230 226 214 203 200 195 194 186 175 159 162 142 128 95 62 49 41 48 328 291 282 275 275 266 255 261 258 219 231 265 287 295 269 254 253 253 258 254
6 353 341 324 315 276 233 213 200 193 191 189 148 123 112 106 107 91 54 23 22 24 16 358 340 316 293 284 280 264 260 267 252 220 232 245 250 289 291 267 260 264 261
10 11 326 288 285 285 268 205 173 161 160 158 176 182 182 181 173 162 145 64 25 23 19 10 1 339 321 303 294 280 264 265 268 246 229 232 227 234 279 286 273 273 263
8 351 335 328 346 1 13 51 143 151 149 141 178 206 185 172 148 144 134 131 72 41 24 19 8 357 339 322 311 303 285 268 266 259 245 240 237 230 237 266 275 282 268
5 357 353 3 11 12 18 28 163 130 124 135 153 185 167 150 148 145 144 147 118 37 18 18 12 3 351 340 331 320 310 296 280 271 256 241 234 224 223 238 250 261 271
344 340 348 352 352 351 351 341 126 151 131 136 134 151 145 146 153 149 147 144 141 99 4 7 357 352 345 342 345 347 345 335 319 301 280 260 249 239 223 230 242 247 261
282 282 285 284 290 297 300 271 209 178 157 145 123 113 120 122 126 133 134 138 143 131 357 350 346 347 349 348 347 347 349 350 353 352 342 320 307 280 247 233 228 244 257
267 268 274 276 274 274 272 252 218 146 135 136 133 125 123 122 126 121 114 115 110 83 360 347 346 342 342 340 341 338 338 343 353 358 4 7 358 358 343 329 297 262 275
263 263 264 270 277 277 289 288 198 151 138 143 141 134 126 126 129 119 111 103 81 39 14 5 354 346 344 340 333 323 324 333 336 343 2 7 355 357 359 345 318 269 245
264 260 260 263 264 265 256 210 179 158 146 146 140 133 129 127 121 114 112 106 73 42 31 15 11 6 359 351 342 332 331 338 343 349 5 14 12 15 14 4 343 312 276
268 266 264 260 255 254 244 206 181 164 162 151 145 141 135 133 126 111 93 81 69 55 45 39 33 22 11 4 1 356 6 11 9 13 23 20 22 23 16 12 357 334 305
276 278 279 265 256 254 260 229 183 169 159 152 148 141 140 136 121 102 88 80 76 61 50 46 38 24 16 17 22 31 37 38 35 32 30 21 22 19 8 7 2 342 327
273 271 266 273 276 279 275 261 224 151 138 140 141 141 141 135 125 111 97 89 83 71 58 47 37 26 26 32 40 48 48 45 39 33 29 24 24 18 8 11 6 360 2
263 236 202 206 237 265 260 231 188 119 120 124 128 133 131 127 121 111 100 93 84 78 67 54 41 31 32 36 52 55 53 44 39 32 28 30 33 30 24 22 14 15 17
256 223 192 192 188 208 230 213 171 130 124 124 125 126 124 122 122 117 109 101 91 81 69 57 50 42 38 55 67 72 63 54 46 34 21 27 28 19 24 30 36 35 30
243 219 196 190 195 207 209 200 192 151 130 128 127 127 127 121 119 121 114 112 107 95 78 61 57 53 50 71 76 75 75 64 51 40 31 30 20 18 17 23 34 36 34
229 216 200 195 199 201 198 188 172 158 147 137 132 131 126 119 117 115 115 116 114 109 92 72 64 68 64 85 88 82 74 66 52 42 33 30 21 15 14 32 37 33 28
221 210 195 187 190 198 195 178 172 164 155 151 144 141 138 133 128 124 123 120 119 109 95 79 74 77 59 74 89 82 75 65 48 35 32 29 24 10 25 38 35 30 20
205 194 182 174 189 204 181 174 177 170 171 162 149 143 142 142 139 135 129 120 118 110 100 81 67 72 59 58 91 88 80 67 45 28 25 25 21 17 29 39 36 30 6
195 185 177 186 201 188 167 177 185 194 184 156 142 141 141 142 138 127 121 124 118 110 100 90 73 66 63 62 78 89 88 86 63 40 18 7 11 27 37 44 41 20 3
188 181 182 202 205 182 172 182 200 195 159 144 138 136 138 141 135 127 121 125 126 119 113 105 88 67 60 69 77 80 80 85 76 43 3 357 20 38 42 43 39 42 46
192 184 187 199 202 190 181 188 194 163 148 141 139 136 130 125 133 138 136 130 132 132 134 127 118 105 82 75 74 73 69 66 68 36 21 31 41 46 48 44 42 44 47
193 184 181 192 204 200 195 193 171 158 150 148 146 142 135 128 130 137 147 148 152 148 147 147 144 135 115 93 74 63 56 46 41 29 23 39 49 51 46 40 36 38 40
190 181 188 198 206 196 195 186 168 158 154 154 152 149 146 143 138 128 132 160 169 171 165 171 162 155 152 149 124 107 66 39 20 29 38 37 37 42 38 34 34 32 33
188 188 198 204 205 193 194 186 173 165 159 161 163 161 155 152 148 138 106 62 104 165 169 162 155 152 156 151 135 102 68 47 65 79 63 53 53 56 43 34 32 31 30